Time,TemperatureF,DewpointF,PressureIn,WindDirection,WindDirectionDegrees,WindSpeedMPH,WindSpeedGustMPH,Humidity,HourlyPrecipIn,Conditions,Clouds,dailyrainin,SolarRadiationWatts/m^2,SoftwareType,DateUTC
2013-06-05 00:02:00,50.0,35.0,-100.00,ENE,57,4.0,7.0,57,-99.99,,,-99.99,115.000000,,2013-06-05 04:02:00,
2013-06-05 00:12:00,50.0,35.0,-100.00,ENE,57,4.0,7.0,57,-99.99,,,-99.99,115.000000,,2013-06-05 04:12:00,
2013-06-05 00:22:00,50.0,35.0,-100.00,ENE,57,4.0,7.0,57,-99.99,,,-99.99,115.000000,,2013-06-05 04:22:00,
2013-06-05 00:42:00,50.0,35.0,-100.00,NE,55,3.0,6.0,57,0.00,,,-99.99,81.000000,,2013-06-05 04:42:00,
2013-06-05 00:53:00,50.0,35.0,-100.00,NE,55,3.0,6.0,57,0.00,,,-99.99,81.000000,,2013-06-05 04:53:00,
2013-06-05 01:02:00,50.0,35.0,-100.00,NE,55,3.0,6.0,57,0.00,,,-99.99,81.000000,,2013-06-05 05:02:00,
2013-06-05 01:12:00,50.0,35.0,-100.00,NE,55,3.0,6.0,57,0.00,,,-99.99,81.000000,,2013-06-05 05:12:00,
2013-06-05 01:22:00,50.0,35.0,-100.00,NE,55,3.0,6.0,57,0.00,,,-99.99,81.000000,,2013-06-05 05:22:00,
2013-06-05 01:42:00,48.0,35.0,-100.00,ENE,57,3.0,6.0,60,0.00,,,0.00,19.000000,,2013-06-05 05:42:00,
2013-06-05 01:52:00,48.0,35.0,-100.00,ENE,57,3.0,6.0,60,0.00,,,0.00,19.000000,,2013-06-05 05:52:00,
2013-06-05 02:02:00,48.0,35.0,-100.00,ENE,57,3.0,6.0,60,0.00,,,0.00,19.000000,,2013-06-05 06:02:00,
2013-06-05 02:12:00,48.0,35.0,-100.00,ENE,57,3.0,6.0,60,0.00,,,0.00,19.000000,,2013-06-05 06:12:00,
2013-06-05 02:21:00,48.0,35.0,-100.00,ENE,57,3.0,6.0,60,0.00,,,0.00,19.000000,,2013-06-05 06:21:00,
2013-06-05 02:42:00,46.0,35.0,-100.00,NE,56,2.0,6.0,65,0.00,,,0.00,3.000000,,2013-06-05 06:42:00,
2013-06-05 02:52:00,46.0,35.0,-100.00,NE,56,2.0,6.0,65,0.00,,,0.00,3.000000,,2013-06-05 06:52:00,
2013-06-05 03:02:00,46.0,35.0,-100.00,NE,56,2.0,6.0,65,0.00,,,0.00,3.000000,,2013-06-05 07:02:00,
2013-06-05 03:12:00,46.0,35.0,-100.00,NE,56,2.0,6.0,65,0.00,,,0.00,3.000000,,2013-06-05 07:12:00,
2013-06-05 03:22:00,46.0,35.0,-100.00,NE,56,2.0,6.0,65,0.00,,,0.00,3.000000,,2013-06-05 07:22:00,
2013-06-05 03:42:00,45.0,40.0,-100.00,NNW,332,1.0,4.0,84,0.00,,,0.00,0.000000,,2013-06-05 07:42:00,
2013-06-05 03:52:00,45.0,40.0,-100.00,NNW,332,1.0,4.0,84,0.00,,,0.00,0.000000,,2013-06-05 07:52:00,
2013-06-05 04:02:00,45.0,40.0,-100.00,NNW,332,1.0,4.0,84,0.00,,,0.00,0.000000,,2013-06-05 08:02:00,
2013-06-05 04:12:00,45.0,40.0,-100.00,NNW,332,1.0,4.0,84,0.00,,,0.00,0.000000,,2013-06-05 08:12:00,
2013-06-05 04:22:00,45.0,40.0,-100.00,NNW,332,1.0,4.0,84,0.00,,,0.00,0.000000,,2013-06-05 08:22:00,
2013-06-05 04:42:00,43.0,39.0,-100.00,NNE,27,1.0,3.0,86,0.00,,,-99.99,0.000000,,2013-06-05 08:42:00,
2013-06-05 04:52:00,43.0,39.0,-100.00,NNE,27,1.0,3.0,86,0.00,,,-99.99,0.000000,,2013-06-05 08:52:00,
2013-06-05 05:02:00,43.0,39.0,-100.00,NNE,27,1.0,3.0,86,0.00,,,-99.99,0.000000,,2013-06-05 09:02:00,
2013-06-05 05:12:00,43.0,39.0,-100.00,NNE,27,1.0,3.0,86,0.00,,,-99.99,0.000000,,2013-06-05 09:12:00,
2013-06-05 05:21:00,43.0,39.0,-100.00,NNE,27,1.0,3.0,86,0.00,,,-99.99,0.000000,,2013-06-05 09:21:00,
2013-06-05 05:43:00,41.0,38.0,-100.00,WNW,290,0.0,1.0,90,0.00,,,-99.99,0.000000,,2013-06-05 09:43:00,
2013-06-05 05:53:00,41.0,38.0,-100.00,WNW,290,0.0,1.0,90,0.00,,,-99.99,0.000000,,2013-06-05 09:53:00,
2013-06-05 06:03:00,41.0,38.0,-100.00,WNW,290,0.0,1.0,90,0.00,,,-99.99,0.000000,,2013-06-05 10:03:00,
2013-06-05 06:12:00,41.0,38.0,-100.00,WNW,290,0.0,1.0,90,0.00,,,-99.99,0.000000,,2013-06-05 10:12:00,
2013-06-05 06:22:00,41.0,38.0,-100.00,WNW,290,0.0,1.0,90,0.00,,,-99.99,0.000000,,2013-06-05 10:22:00,
2013-06-05 06:43:00,41.0,39.0,-100.00,WNW,299,0.0,2.0,91,0.00,,,-99.99,0.000000,,2013-06-05 10:43:00,
2013-06-05 06:52:00,41.0,39.0,-100.00,WNW,299,0.0,2.0,91,0.00,,,-99.99,0.000000,,2013-06-05 10:52:00,
2013-06-05 07:02:00,41.0,39.0,-100.00,WNW,299,0.0,2.0,91,0.00,,,-99.99,0.000000,,2013-06-05 11:02:00,
2013-06-05 07:12:00,41.0,39.0,-100.00,WNW,299,0.0,2.0,91,0.00,,,-99.99,0.000000,,2013-06-05 11:12:00,
2013-06-05 07:21:00,41.0,39.0,-100.00,WNW,299,0.0,2.0,91,0.00,,,-99.99,0.000000,,2013-06-05 11:21:00,
2013-06-05 07:42:00,39.0,37.0,-100.00,West,277,0.0,1.0,93,0.00,,,0.00,0.000000,,2013-06-05 11:42:00,
2013-06-05 07:52:00,39.0,37.0,-100.00,West,277,0.0,1.0,93,0.00,,,0.00,0.000000,,2013-06-05 11:52:00,
2013-06-05 08:02:00,39.0,37.0,-100.00,West,277,0.0,1.0,93,0.00,,,0.00,0.000000,,2013-06-05 12:02:00,
2013-06-05 08:12:00,39.0,37.0,-100.00,West,277,0.0,1.0,93,0.00,,,0.00,0.000000,,2013-06-05 12:12:00,
2013-06-05 08:22:00,39.0,37.0,-100.00,West,277,0.0,1.0,93,0.00,,,0.00,0.000000,,2013-06-05 12:22:00,
2013-06-05 08:44:00,39.0,38.0,-100.00,WNW,289,0.0,2.0,95,0.00,,,-99.99,1.000000,,2013-06-05 12:44:00,
2013-06-05 08:52:00,39.0,38.0,-100.00,WNW,289,0.0,2.0,95,0.00,,,-99.99,1.000000,,2013-06-05 12:52:00,
2013-06-05 09:02:00,39.0,38.0,-100.00,WNW,289,0.0,2.0,95,0.00,,,-99.99,1.000000,,2013-06-05 13:02:00,
2013-06-05 09:12:00,39.0,38.0,-100.00,WNW,289,0.0,2.0,95,0.00,,,-99.99,1.000000,,2013-06-05 13:12:00,
2013-06-05 09:21:00,39.0,38.0,-100.00,WNW,289,0.0,2.0,95,0.00,,,-99.99,1.000000,,2013-06-05 13:21:00,
2013-06-05 09:42:00,39.0,37.0,-100.00,WNW,299,0.0,2.0,93,0.00,,,-99.99,12.000000,,2013-06-05 13:42:00,
2013-06-05 09:52:00,39.0,37.0,-100.00,WNW,299,0.0,2.0,93,0.00,,,-99.99,12.000000,,2013-06-05 13:52:00,
2013-06-05 10:02:00,39.0,37.0,-100.00,WNW,299,0.0,2.0,93,0.00,,,-99.99,12.000000,,2013-06-05 14:02:00,
2013-06-05 10:12:00,39.0,37.0,-100.00,WNW,299,0.0,2.0,93,0.00,,,-99.99,12.000000,,2013-06-05 14:12:00,
2013-06-05 10:22:00,39.0,37.0,-100.00,WNW,299,0.0,2.0,93,0.00,,,-99.99,12.000000,,2013-06-05 14:22:00,
2013-06-05 10:42:00,43.0,40.0,-100.00,NE,48,2.0,5.0,88,0.00,,,-99.99,41.000000,,2013-06-05 14:42:00,
2013-06-05 10:52:00,43.0,40.0,-100.00,NE,48,2.0,5.0,88,0.00,,,-99.99,41.000000,,2013-06-05 14:52:00,
2013-06-05 11:02:00,43.0,40.0,-100.00,NE,48,2.0,5.0,88,0.00,,,-99.99,41.000000,,2013-06-05 15:02:00,
2013-06-05 11:12:00,43.0,40.0,-100.00,NE,48,2.0,5.0,88,0.00,,,-99.99,41.000000,,2013-06-05 15:12:00,
2013-06-05 11:22:00,43.0,40.0,-100.00,NE,48,2.0,5.0,88,0.00,,,-99.99,41.000000,,2013-06-05 15:22:00,
2013-06-05 11:43:00,43.0,39.0,-100.00,NE,44,2.0,5.0,85,0.01,,,0.01,87.000000,,2013-06-05 15:43:00,
2013-06-05 11:53:00,43.0,39.0,-100.00,NE,44,2.0,5.0,85,0.01,,,0.01,87.000000,,2013-06-05 15:53:00,
2013-06-05 12:03:00,43.0,39.0,-100.00,NE,44,2.0,5.0,85,0.01,,,0.01,87.000000,,2013-06-05 16:03:00,
2013-06-05 12:12:00,43.0,39.0,-100.00,NE,44,2.0,5.0,85,0.01,,,0.01,87.000000,,2013-06-05 16:12:00,
2013-06-05 12:22:00,43.0,39.0,-100.00,NE,44,2.0,5.0,85,0.01,,,0.01,87.000000,,2013-06-05 16:22:00,
2013-06-05 12:42:00,43.0,40.0,-100.00,NE,43,3.0,5.0,88,-99.99,,,0.00,121.000000,,2013-06-05 16:42:00,
2013-06-05 12:54:00,43.0,40.0,-100.00,NE,43,3.0,5.0,88,-99.99,,,0.00,121.000000,,2013-06-05 16:54:00,
2013-06-05 13:02:00,43.0,40.0,-100.00,NE,43,3.0,5.0,88,-99.99,,,0.00,121.000000,,2013-06-05 17:02:00,
2013-06-05 13:12:00,43.0,40.0,-100.00,NE,43,3.0,5.0,88,-99.99,,,0.00,121.000000,,2013-06-05 17:12:00,
2013-06-05 13:22:00,43.0,40.0,-100.00,NE,43,3.0,5.0,88,-99.99,,,0.00,121.000000,,2013-06-05 17:22:00,
2013-06-05 13:43:00,45.0,36.0,-100.00,NE,46,3.0,6.0,72,0.00,,,0.00,199.000000,,2013-06-05 17:43:00,
2013-06-05 13:52:00,45.0,36.0,-100.00,NE,46,3.0,6.0,72,0.00,,,0.00,199.000000,,2013-06-05 17:52:00,
2013-06-05 14:02:00,45.0,36.0,-100.00,NE,46,3.0,6.0,72,0.00,,,0.00,199.000000,,2013-06-05 18:02:00,
2013-06-05 14:12:00,45.0,36.0,-100.00,NE,46,3.0,6.0,72,0.00,,,0.00,199.000000,,2013-06-05 18:12:00,
2013-06-05 14:22:00,45.0,36.0,-100.00,NE,46,3.0,6.0,72,0.00,,,0.00,199.000000,,2013-06-05 18:22:00,
2013-06-05 14:42:00,46.0,36.0,-100.00,NE,46,4.0,6.0,67,0.00,,,0.00,249.000000,,2013-06-05 18:42:00,
2013-06-05 14:52:00,46.0,36.0,-100.00,NE,46,4.0,6.0,67,0.00,,,0.00,249.000000,,2013-06-05 18:52:00,
2013-06-05 15:02:00,46.0,36.0,-100.00,NE,46,4.0,6.0,67,0.00,,,0.00,249.000000,,2013-06-05 19:02:00,
2013-06-05 15:12:00,46.0,36.0,-100.00,NE,46,4.0,6.0,67,0.00,,,0.00,249.000000,,2013-06-05 19:12:00,
2013-06-05 15:22:00,46.0,36.0,-100.00,NE,46,4.0,6.0,67,0.00,,,0.00,249.000000,,2013-06-05 19:22:00,
2013-06-05 15:42:00,48.0,37.0,-100.00,NE,46,4.0,6.0,64,0.00,,,0.00,320.000000,,2013-06-05 19:42:00,
2013-06-05 15:53:00,48.0,37.0,-100.00,NE,46,4.0,6.0,64,0.00,,,0.00,320.000000,,2013-06-05 19:53:00,
2013-06-05 16:02:00,48.0,37.0,-100.00,NE,46,4.0,6.0,64,0.00,,,0.00,320.000000,,2013-06-05 20:02:00,
2013-06-05 16:12:00,48.0,37.0,-100.00,NE,46,4.0,6.0,64,0.00,,,0.00,320.000000,,2013-06-05 20:12:00,
2013-06-05 16:22:00,48.0,37.0,-100.00,NE,46,4.0,6.0,64,0.00,,,0.00,320.000000,,2013-06-05 20:22:00,
2013-06-05 16:42:00,48.0,35.0,-100.00,NE,47,4.0,7.0,61,0.00,,,0.00,453.000000,,2013-06-05 20:42:00,
2013-06-05 16:52:00,48.0,35.0,-100.00,NE,47,4.0,7.0,61,0.00,,,0.00,453.000000,,2013-06-05 20:52:00,
2013-06-05 17:02:00,48.0,35.0,-100.00,NE,47,4.0,7.0,61,0.00,,,0.00,453.000000,,2013-06-05 21:02:00,
2013-06-05 17:12:00,48.0,35.0,-100.00,NE,47,4.0,7.0,61,0.00,,,0.00,453.000000,,2013-06-05 21:12:00,
2013-06-05 17:21:00,48.0,35.0,-100.00,NE,47,4.0,7.0,61,0.00,,,0.00,453.000000,,2013-06-05 21:21:00,
2013-06-05 17:43:00,50.0,37.0,-100.00,ENE,61,4.0,7.0,61,0.00,,,0.00,607.000000,,2013-06-05 21:43:00,
2013-06-05 17:53:00,50.0,37.0,-100.00,ENE,61,4.0,7.0,61,0.00,,,0.00,607.000000,,2013-06-05 21:53:00,
2013-06-05 18:02:00,50.0,37.0,-100.00,ENE,61,4.0,7.0,61,0.00,,,0.00,607.000000,,2013-06-05 22:02:00,
2013-06-05 18:12:00,50.0,37.0,-100.00,ENE,61,4.0,7.0,61,0.00,,,0.00,607.000000,,2013-06-05 22:12:00,
2013-06-05 18:22:00,50.0,37.0,-100.00,ENE,61,4.0,7.0,61,0.00,,,0.00,607.000000,,2013-06-05 22:22:00,
2013-06-05 18:43:00,52.0,36.0,-100.00,ENE,69,4.0,6.0,55,0.00,,,-99.99,701.000000,,2013-06-05 22:43:00,
2013-06-05 18:52:00,52.0,36.0,-100.00,ENE,69,4.0,6.0,55,0.00,,,-99.99,701.000000,,2013-06-05 22:52:00,
2013-06-05 19:02:00,52.0,36.0,-100.00,ENE,69,4.0,6.0,55,0.00,,,-99.99,701.000000,,2013-06-05 23:02:00,
2013-06-05 19:12:00,52.0,36.0,-100.00,ENE,69,4.0,6.0,55,0.00,,,-99.99,701.000000,,2013-06-05 23:12:00,
2013-06-05 19:21:00,52.0,36.0,-100.00,ENE,69,4.0,6.0,55,0.00,,,-99.99,701.000000,,2013-06-05 23:21:00,
2013-06-05 19:42:00,52.0,38.0,-100.00,East,79,4.0,7.0,58,0.00,,,0.00,504.000000,,2013-06-05 23:42:00,
2013-06-05 19:53:00,52.0,38.0,-100.00,East,79,4.0,7.0,58,0.00,,,0.00,504.000000,,2013-06-05 23:53:00,
2013-06-05 20:02:00,52.0,38.0,-100.00,East,79,4.0,7.0,58,0.00,,,0.00,504.000000,,2013-06-06 00:02:00,
2013-06-05 20:12:00,52.0,38.0,-100.00,East,79,4.0,7.0,58,0.00,,,0.00,504.000000,,2013-06-06 00:12:00,
2013-06-05 20:21:00,52.0,38.0,-100.00,East,79,4.0,7.0,58,0.00,,,0.00,504.000000,,2013-06-06 00:21:00,
2013-06-05 20:43:00,50.0,35.0,-100.00,NE,55,4.0,6.0,57,0.00,,,0.00,337.000000,,2013-06-06 00:43:00,
2013-06-05 20:52:00,50.0,35.0,-100.00,NE,55,4.0,6.0,57,0.00,,,0.00,337.000000,,2013-06-06 00:52:00,
2013-06-05 21:02:00,50.0,35.0,-100.00,NE,55,4.0,6.0,57,0.00,,,0.00,337.000000,,2013-06-06 01:02:00,
2013-06-05 21:12:00,50.0,35.0,-100.00,NE,55,4.0,6.0,57,0.00,,,0.00,337.000000,,2013-06-06 01:12:00,
2013-06-05 21:21:00,50.0,35.0,-100.00,NE,55,4.0,6.0,57,0.00,,,0.00,337.000000,,2013-06-06 01:21:00,
2013-06-05 21:42:00,50.0,38.0,-100.00,ENE,60,4.0,6.0,63,0.00,,,0.00,239.000000,,2013-06-06 01:42:00,
2013-06-05 21:53:00,50.0,38.0,-100.00,ENE,60,4.0,6.0,63,0.00,,,0.00,239.000000,,2013-06-06 01:53:00,
2013-06-05 22:02:00,50.0,38.0,-100.00,ENE,60,4.0,6.0,63,0.00,,,0.00,239.000000,,2013-06-06 02:02:00,
2013-06-05 22:12:00,50.0,38.0,-100.00,ENE,60,4.0,6.0,63,0.00,,,0.00,239.000000,,2013-06-06 02:12:00,
2013-06-05 22:21:00,50.0,38.0,-100.00,ENE,60,4.0,6.0,63,0.00,,,0.00,239.000000,,2013-06-06 02:21:00,
2013-06-05 23:02:00,48.0,36.0,-100.00,ENE,64,4.0,7.0,63,0.00,,,-99.99,194.000000,,2013-06-06 03:02:00,
2013-06-05 23:12:00,48.0,36.0,-100.00,ENE,64,4.0,7.0,63,0.00,,,-99.99,194.000000,,2013-06-06 03:12:00,
2013-06-05 23:22:00,48.0,36.0,-100.00,ENE,64,4.0,7.0,63,0.00,,,-99.99,194.000000,,2013-06-06 03:22:00,
2013-06-05 23:43:00,48.0,39.0,-100.00,NE,54,3.0,6.0,69,0.00,,,0.00,115.000000,,2013-06-06 03:43:00,
2013-06-05 23:52:00,48.0,39.0,-100.00,NE,54,3.0,6.0,69,0.00,,,0.00,115.000000,,2013-06-06 03:52:00,